| time (UTC) | temp F | wind direction | speed knots | gust knots | rain 1hr in | rain 24hr in | rain mn in | humidity % | barometer mb |
| 20260504120107 | 48 | 0 | 0.0 | 0.0 | 0.00 | 0.00 | 0.00 | 93 | 1017.3 |
| 20260504081552 | 49 | 0 | 0.0 | 0.0 | 0.00 | 0.00 | 0.00 | 93 | 1017.5 |
| 20260504044557 | 53 | 0 | 0.0 | 0.0 | 0.00 | 0.00 | 0.00 | 91 | 1018.6 |
| 20260504043054 | 53 | 0 | 0.0 | 0.0 | 0.00 | 0.00 | 0.00 | 91 | 1018.7 |
| 20260504041552 | 54 | 0 | 0.0 | 0.0 | 0.00 | 0.00 | 0.00 | 91 | 1018.8 |
| 20260504040056 | 54 | 0 | 0.0 | 0.0 | 0.00 | 0.00 | 0.00 | 90 | 1018.8 |
| 20260504034551 | 54 | 0 | 0.0 | 0.0 | 0.00 | 0.00 | 0.00 | 90 | 1019.0 |
| 20260504033054 | 55 | 0 | 0.0 | 0.0 | 0.00 | 0.00 | 0.00 | 89 | 1019.2 |
| 20260504031554 | 55 | 0 | 0.0 | 0.0 | 0.00 | 0.00 | 0.00 | 89 | 1019.1 |
| 20260504030054 | 56 | 0 | 0.0 | 0.0 | 0.00 | 0.00 | 0.00 | 87 | 1019.1 |
| 20260504024604 | 57 | 0 | 0.0 | 0.0 | 0.00 | 0.00 | 0.00 | 85 | 1019.1 |
| 20260504023053 | 57 | 0 | 0.0 | 0.0 | 0.00 | 0.00 | 0.00 | 84 | 1018.9 |
| 20260504021554 | 58 | 0 | 0.0 | 0.0 | 0.00 | 0.00 | 0.00 | 81 | 1018.6 |
| 20260504020050 | 59 | 0 | 0.0 | 0.0 | 0.00 | 0.00 | 0.00 | 80 | 1018.4 |
| 20260504014558 | 60 | 0 | 0.0 | 0.0 | 0.00 | 0.00 | 0.00 | 76 | 1018.2 |
| 20260504013054 | 61 | 0 | 0.0 | 0.0 | 0.00 | 0.00 | 0.00 | 71 | 1018.0 |
| 20260504011555 | 63 | 0 | 0.0 | 0.0 | 0.00 | 0.00 | 0.00 | 70 | 1018.0 |
| 20260504004558 | 66 | 0 | 0.0 | 0.0 | 0.00 | 0.00 | 0.00 | 57 | 1017.7 |
| 20260504003055 | 67 | 0 | 0.0 | 0.0 | 0.00 | 0.00 | 0.00 | 53 | 1017.7 |
| 20260504001552 | 69 | 0 | 0.0 | 0.0 | 0.00 | 0.00 | 0.00 | 50 | 1017.6 |
| 20260504000130 | 70 | 0 | 0.0 | 0.0 | 0.00 | 0.00 | 0.00 | 48 | 1017.6 |
| 20260503234559 | 72 | 0 | 0.0 | 1.7 | 0.00 | 0.00 | 0.00 | 45 | 1017.6 |
| 20260503233051 | 74 | 0 | 0.0 | 0.9 | 0.00 | 0.00 | 0.00 | 40 | 1017.6 |
| 20260503231555 | 74 | 310 | 0.0 | 4.3 | 0.00 | 0.00 | 0.00 | 38 | 1017.7 |
| 20260503230055 | 75 | 0 | 0.0 | 5.2 | 0.00 | 0.00 | 0.00 | 38 | 1017.7 |
| 20260503224552 | 74 | 0 | 0.9 | 4.3 | 0.00 | 0.00 | 0.00 | 38 | 1017.7 |
| 20260503223054 | 75 | 300 | 0.0 | 3.5 | 0.00 | 0.00 | 0.00 | 39 | 1017.8 |
| 20260503221558 | 74 | 313 | 1.7 | 8.7 | 0.00 | 0.00 | 0.00 | 39 | 1018.0 |
| 20260503220057 | 74 | 0 | 0.9 | 3.5 | 0.00 | 0.00 | 0.00 | 37 | 1018.0 |
| 20260503214550 | 74 | 0 | 0.9 | 6.1 | 0.00 | 0.00 | 0.00 | 38 | 1018.2 |
| 20260503213052 | 74 | 0 | 0.9 | 7.0 | 0.00 | 0.00 | 0.00 | 40 | 1018.4 |
| 20260503211602 | 74 | 290 | 0.0 | 6.1 | 0.00 | 0.00 | 0.00 | 41 | 1018.5 |
| 20260503210052 | 73 | 254 | 0.9 | 10.4 | 0.00 | 0.00 | 0.00 | 39 | 1018.6 |
| 20260503204554 | 74 | 296 | 2.6 | 7.8 | 0.00 | 0.00 | 0.00 | 37 | 1018.7 |
| 20260503203107 | 73 | 304 | 0.0 | 5.2 | 0.00 | 0.00 | 0.00 | 44 | 1019.1 |
| 20260503201554 | 73 | 301 | 0.9 | 7.0 | 0.00 | 0.00 | 0.00 | 41 | 1019.4 |
| 20260503200051 | 73 | 233 | 1.7 | 9.6 | 0.00 | 0.00 | 0.00 | 40 | 1019.7 |
| 20260503194555 | 73 | 0 | 0.0 | 8.7 | 0.00 | 0.00 | 0.00 | 44 | 1019.8 |
| 20260503193053 | 73 | 290 | 0.0 | 8.7 | 0.00 | 0.00 | 0.00 | 40 | 1020.0 |
| 20260503191551 | 72 | 328 | 0.9 | 10.4 | 0.00 | 0.00 | 0.00 | 38 | 1020.2 |
| 20260503190053 | 73 | 253 | 0.0 | 7.0 | 0.00 | 0.00 | 0.00 | 39 | 1020.5 |
| 20260503184553 | 72 | 0 | 0.9 | 5.2 | 0.00 | 0.00 | 0.00 | 43 | 1020.6 |
| 20260503183052 | 71 | 304 | 4.3 | 9.6 | 0.00 | 0.00 | 0.00 | 41 | 1020.9 |
| 20260503181601 | 72 | 0 | 1.7 | 9.6 | 0.00 | 0.00 | 0.00 | 43 | 1020.8 |
| 20260503180052 | 72 | 306 | 2.6 | 13.0 | 0.00 | 0.00 | 0.00 | 38 | 1021.1 |
| 20260503174552 | 72 | 19 | 0.0 | 11.3 | 0.00 | 0.00 | 0.00 | 40 | 1021.2 |
| 20260503173057 | 72 | 0 | 0.9 | 6.1 | 0.00 | 0.00 | 0.00 | 45 | 1021.3 |
| 20260503171549 | 71 | 287 | 0.0 | 5.2 | 0.00 | 0.00 | 0.00 | 44 | 1021.6 |